Back to catalog

COSMOS 2251 DEB

AliveLEO
NORAD 34846·DEBRIS·🇷🇺 Russia

Launched Jun 16, 1993 from Plesetsk Cosmodrome

Loading…

Next Passes (next 24 hours)

TLE

FreshSource: Space-Track

Epoch: Sep 14, 2026, 08:26 UTC

1 34846U 93036ABQ 26257.35181372  .00001231  00000-0  33387-3 0  9992
2 34846  74.0275 105.7095 0025275 109.9328 250.4558 14.48509017913935

Track COSMOS 2251 DEB in real time with AllMySat

Download on the App Store